• In Hungary
  • List of Countries
  • For 7 days
  • Water Temperature
  • Satellite Maps
  • Weather Map
  • News
  • Weather Widgets
  • user-avatar
    Login

    Hourly Weather Janow

    Today, 24 October, Wednesday

    Time Temperature Precipitation Wind Pressure Humidity
    00:00 +9°C° 0.8 mm 10 mps 737 mmHg 79%
    01:00 +8°C° 0.8 mm 10 mps 737 mmHg 78%
    02:00 +8°C° 0.4 mm 10 mps 737 mmHg 77%
    03:00 +7°C° 0.4 mm 10 mps 737 mmHg 75%
    04:00 +7°C° 0.4 mm 10 mps 737 mmHg 74%
    05:00 +6°C° 0.2 mm 10 mps 737 mmHg 73%
    06:00 +6°C° 0.2 mm 9 mps 738 mmHg 71%
    07:00 +5°C° 0.2 mm 9 mps 739 mmHg 69%
    08:00 +5°C° 0.1 mm 9 mps 739 mmHg 65%
    09:00 +6°C° 0.1 mm 10 mps 740 mmHg 61%
    10:00 +6°C° 0.1 mm 10 mps 741 mmHg 57%
    11:00 +6°C° 0.1 mm 10 mps 741 mmHg 55%
    12:00 +6°C° 0.1 mm 10 mps 742 mmHg 54%
    13:00 +7°C° 0.1 mm 10 mps 742 mmHg 53%
    14:00 +6°C° 0 mm 9 mps 743 mmHg 53%
    15:00 +6°C° 0 mm 8 mps 743 mmHg 53%
    16:00 +6°C° 0 mm 7 mps 744 mmHg 53%
    17:00 +5°C° 0 mm 7 mps 744 mmHg 55%
    18:00 +5°C° 0 mm 6 mps 745 mmHg 58%
    19:00 +4°C° 0 mm 6 mps 746 mmHg 60%
    20:00 +4°C° 0 mm 6 mps 746 mmHg 63%
    21:00 +3°C° 0 mm 5 mps 747 mmHg 65%
    22:00 +3°C° 0 mm 5 mps 747 mmHg 68%
    23:00 +3°C° 0 mm 5 mps 747 mmHg 70%

    Tomorrow, 25 October, Thursday

    Time Temperature Precipitation Wind Pressure Humidity
    00:00 +3°C° 0 mm 5 mps 747 mmHg 73%
    01:00 +3°C° 0 mm 4 mps 747 mmHg 76%
    02:00 +4°C° 0 mm 4 mps 746 mmHg 76%
    03:00 +4°C° 0 mm 4 mps 746 mmHg 76%
    04:00 +5°C° 0 mm 4 mps 745 mmHg 76%
    05:00 +6°C° 0.6 mm 5 mps 744 mmHg 80%
    06:00 +6°C° 0.6 mm 5 mps 744 mmHg 83%
    07:00 +7°C° 0.6 mm 6 mps 743 mmHg 87%
    08:00 +8°C° 0.2 mm 7 mps 743 mmHg 84%
    09:00 +10°C° 0.2 mm 8 mps 742 mmHg 80%
    10:00 +11°C° 0.2 mm 9 mps 742 mmHg 77%
    11:00 +11°C° 0.1 mm 9 mps 742 mmHg 76%
    12:00 +11°C° 0.1 mm 9 mps 741 mmHg 75%
    13:00 +11°C° 0.1 mm 9 mps 741 mmHg 74%
    14:00 +11°C° 0.1 mm 8 mps 741 mmHg 75%
    15:00 +11°C° 0.1 mm 8 mps 741 mmHg 76%
    16:00 +10°C° 0.1 mm 8 mps 742 mmHg 77%
    17:00 +10°C° 0.2 mm 7 mps 742 mmHg 78%
    18:00 +10°C° 0.2 mm 7 mps 742 mmHg 79%
    19:00 +9°C° 0.2 mm 6 mps 743 mmHg 80%
    20:00 +9°C° 0.1 mm 6 mps 743 mmHg 80%
    21:00 +8°C° 0.1 mm 5 mps 743 mmHg 81%
    22:00 +8°C° 0.1 mm 4 mps 743 mmHg 81%
    23:00 +7°C° 0 mm 4 mps 743 mmHg 82%

    Day after tomorrow, 26 October, Friday

    Time Temperature Precipitation Wind Pressure Humidity
    00:00 +7°C° 0 mm 4 mps 744 mmHg 83%
    01:00 +7°C° 0 mm 4 mps 744 mmHg 84%
    02:00 +6°C° 0 mm 4 mps 744 mmHg 86%
    03:00 +7°C° 0 mm 3 mps 743 mmHg 87%
    04:00 +7°C° 0 mm 3 mps 743 mmHg 88%
    05:00 +7°C° 0 mm 3 mps 743 mmHg 88%
    06:00 +7°C° 0 mm 3 mps 743 mmHg 88%
    07:00 +7°C° 0 mm 3 mps 743 mmHg 88%
    08:00 +8°C° 0 mm 3 mps 743 mmHg 84%
    09:00 +10°C° 0 mm 3 mps 743 mmHg 79%
    10:00 +11°C° 0 mm 3 mps 743 mmHg 75%
    11:00 +12°C° 0 mm 4 mps 742 mmHg 72%
    12:00 +13°C° 0 mm 4 mps 742 mmHg 68%
    13:00 +14°C° 0 mm 5 mps 741 mmHg 64%
    14:00 +13°C° 0 mm 5 mps 741 mmHg 66%
    15:00 +13°C° 0 mm 4 mps 740 mmHg 69%
    16:00 +12°C° 0 mm 4 mps 739 mmHg 71%
    17:00 +12°C° 0 mm 4 mps 739 mmHg 72%
    18:00 +11°C° 0 mm 4 mps 739 mmHg 74%
    19:00 +9°C° 0 mm 5 mps 739 mmHg 75%
    20:00 +9°C° 0 mm 5 mps 739 mmHg 75%
    21:00 +8°C° 0 mm 5 mps 739 mmHg 74%
    22:00 +8°C° 0 mm 5 mps 739 mmHg 74%
    23:00 +8°C° 0 mm 5 mps 739 mmHg 73%

    27 October, Saturday

    Time Temperature Precipitation Wind Pressure Humidity
    00:00 +8°C° 0 mm 5 mps 739 mmHg 73%
    01:00 +8°C° 0 mm 6 mps 739 mmHg 72%
    02:00 +7°C° 0 mm 6 mps 740 mmHg 71%
    03:00 +5°C° 0 mm 6 mps 740 mmHg 71%
    04:00 +5°C° 0 mm 6 mps 740 mmHg 70%
    05:00 +5°C° 0 mm 5 mps 741 mmHg 71%
    06:00 +5°C° 0 mm 5 mps 741 mmHg 72%
    07:00 +4°C° 0 mm 4 mps 742 mmHg 73%
    08:00 +5°C° 0 mm 4 mps 742 mmHg 70%
    09:00 +6°C° 0 mm 5 mps 742 mmHg 66%
    10:00 +6°C° 0 mm 5 mps 743 mmHg 62%
    11:00 +7°C° 0 mm 5 mps 743 mmHg 61%
    12:00 +7°C° 0 mm 4 mps 743 mmHg 59%
    13:00 +9°C° 0 mm 3 mps 743 mmHg 57%
    14:00 +9°C° 0 mm 3 mps 743 mmHg 58%
    15:00 +8°C° 0 mm 2 mps 743 mmHg 60%
    16:00 +9°C° 0 mm 1 mps 743 mmHg 61%
    17:00 +9°C° 0 mm 1 mps 744 mmHg 62%
    18:00 +8°C° 0 mm 1 mps 744 mmHg 64%
    19:00 +8°C° 0 mm 1 mps 744 mmHg 65%
    20:00 +8°C° 0 mm 1 mps 744 mmHg 66%
    21:00 +6°C° 0 mm 0 mps 745 mmHg 67%
    22:00 +6°C° 0 mm 0 mps 745 mmHg 68%
    23:00 +6°C° 0 mm 0 mps 745 mmHg 69%

    28 October, Sunday

    Time Temperature Precipitation Wind Pressure Humidity
    00:00 +7°C° 0 mm 1 mps 745 mmHg 70%
    01:00 +7°C° 0 mm 1 mps 745 mmHg 71%
    02:00 +7°C° 0 mm 1 mps 745 mmHg 72%
    03:00 +7°C° 0 mm 1 mps 745 mmHg 73%
    04:00 +7°C° 0 mm 1 mps 745 mmHg 74%
    05:00 +5°C° 0 mm 2 mps 745 mmHg 75%
    06:00 +5°C° 0 mm 2 mps 745 mmHg 77%
    07:00 +5°C° 0 mm 2 mps 745 mmHg 78%
    08:00 +5°C° 0.2 mm 3 mps 745 mmHg 76%
    09:00 +5°C° 0.2 mm 3 mps 745 mmHg 74%
    10:00 +5°C° 0.2 mm 4 mps 745 mmHg 72%
    11:00 +5°C° 0.7 mm 4 mps 745 mmHg 74%
    12:00 +5°C° 0.7 mm 5 mps 745 mmHg 76%
    13:00 +5°C° 0.7 mm 5 mps 745 mmHg 78%
    14:00 +3°C° 1.1 mm 6 mps 745 mmHg 80%
    15:00 +3°C° 1.1 mm 6 mps 745 mmHg 81%
    16:00 +3°C° 1.1 mm 6 mps 745 mmHg 83%
    17:00 +3°C° 0.8 mm 6 mps 745 mmHg 84%
    18:00 +3°C° 0.8 mm 6 mps 744 mmHg 84%
    19:00 +3°C° 0.8 mm 6 mps 744 mmHg 85%
    20:00 +3°C° 1.3 mm 6 mps 744 mmHg 86%
    21:00 +3°C° 1.3 mm 6 mps 744 mmHg 87%
    22:00 +3°C° 1.3 mm 5 mps 744 mmHg 87%
    23:00 +2°C° 1 mm 5 mps 744 mmHg 88%

    29 October, Monday

    Time Temperature Precipitation Wind Pressure Humidity
    00:00 +2°C° 1 mm 5 mps 744 mmHg 88%
    01:00 +2°C° 1 mm 5 mps 744 mmHg 88%
    02:00 +2°C° 0.8 mm 5 mps 743 mmHg 88%
    03:00 +2°C° 0.8 mm 5 mps 743 mmHg 89%
    04:00 +2°C° 0.8 mm 5 mps 743 mmHg 89%
    05:00 +2°C° 0.6 mm 5 mps 743 mmHg 89%
    06:00 +2°C° 0.6 mm 5 mps 742 mmHg 89%
    07:00 +2°C° 0.6 mm 5 mps 742 mmHg 89%
    08:00 +2°C° 0.9 mm 5 mps 742 mmHg 89%
    09:00 +2°C° 0.9 mm 5 mps 743 mmHg 89%
    10:00 +3°C° 0.9 mm 5 mps 743 mmHg 89%
    11:00 +3°C° 0.7 mm 5 mps 743 mmHg 89%
    12:00 +3°C° 0.7 mm 5 mps 743 mmHg 89%
    13:00 +3°C° 0.7 mm 5 mps 742 mmHg 89%
    14:00 +3°C° 1 mm 5 mps 743 mmHg 89%
    15:00 +3°C° 1 mm 5 mps 743 mmHg 89%
    16:00 +2°C° 1 mm 5 mps 743 mmHg 89%
    17:00 +2°C° 0.1 mm 5 mps 743 mmHg 89%
    18:00 +2°C° 0.1 mm 5 mps 744 mmHg 88%
    19:00 +3°C° 0.1 mm 4 mps 744 mmHg 88%
    20:00 +3°C° 0.1 mm 4 mps 744 mmHg 88%
    21:00 +2°C° 0.1 mm 5 mps 744 mmHg 88%
    22:00 +2°C° 0.1 mm 5 mps 744 mmHg 88%
    23:00 +2°C° 0.1 mm 5 mps 744 mmHg 88%
    Show more